Weather History for Fort Polk, LA

Change the Weather History Date:

Thursday, January 31, 2013

  Actual Average (KPOE) Record (KPOE)
Temperature  
Mean Temperature 46 °F -  
Max Temperature 63 °F 58 °F 78 °F (2002)
Min Temperature 30 °F 40 °F 30 °F (2000)
Degree Days  
Heating Degree Days 18    
Moisture  
Dew Point 29 °F    
Average Humidity 58    
Maximum Humidity 96    
Minimum Humidity 22    
Precipitation  
Precipitation 0.00 in - - ()
Sea Level Pressure  
Sea Level Pressure 30.35 in    
Wind  
Wind Speed 1 mph (South)    
Max Wind Speed 6 mph    
Max Gust Speed -    
Visibility 10 miles    
Events      
Averages and records for this station are not official NWS values.
T = Trace of Precipitation, MM = Missing Value Source: NWS Daily Summary

Daily Weather History Graph

Daily Weather History Graph

Search for Another Location

Airport:

Trip Planner

Search our weather history database for the weather conditions in past years. The results will help you decide how hot, cold, wet, or windy it might be!

Date:

Astronomy

Jan. 31, 2013 Rise Set
Actual Time 7:04 AM CST 5:46 PM CST
Civil Twilight 6:38 AM CST 6:12 PM CST
Nautical Twilight 6:09 AM CST 6:40 PM CST
Astronomical Twilight 5:41 AM CST 7:09 PM CST
Moon 10:24 PM CST (1/31) 9:26 AM CST (1/31)
Length of Visible Light 11h 33m
Length of Day
10h 42m
Waning Gibbous, 79% of the Moon is Illuminated
Jan 31
Waning Gibbous
Feb 3
Last Quarter
Feb 10
New
Feb 17
First Quarter
Feb 25
Full

Hourly Weather History & Observations

Time (CST) Temp. Windchill Dew Point Humidity Pressure Visibility Wind Dir Wind Speed Gust Speed Precip Events Conditions
12:54 AM 35.1 °F - 32.0 °F 89% 30.28 in 10.0 mi Calm Calm - N/A   Clear
1:54 AM 34.0 °F - 30.9 °F 89% 30.29 in 10.0 mi Calm Calm - N/A   Clear
2:54 AM 33.1 °F - 30.0 °F 89% 30.27 in 10.0 mi Calm Calm - N/A   Clear
3:54 AM 32.0 °F - 30.0 °F 92% 30.26 in 10.0 mi Calm Calm - N/A   Clear
4:54 AM 32.0 °F - 28.9 °F 88% 30.27 in 10.0 mi Calm Calm - N/A   Clear
5:54 AM 30.9 °F - 28.9 °F 92% 30.29 in 10.0 mi Calm Calm - N/A   Clear
6:54 AM 30.9 °F - 28.9 °F 92% 30.30 in 10.0 mi Calm Calm - N/A   Clear
7:54 AM 33.1 °F - 32.0 °F 96% 30.32 in 10.0 mi Calm Calm - N/A   Clear
8:54 AM 44.1 °F 42.5 °F 33.1 °F 65% 30.35 in 10.0 mi Variable 3.5 mph - N/A   Clear
9:54 AM 52.0 °F - 30.0 °F 43% 30.37 in 10.0 mi Variable 3.5 mph - N/A   Clear
10:54 AM 57.0 °F - 26.1 °F 30% 30.37 in 10.0 mi Variable 4.6 mph - N/A   Clear
11:54 AM 59.0 °F - 24.1 °F 26% 30.35 in 10.0 mi Variable 4.6 mph - N/A   Clear
12:54 PM 60.1 °F - 23.0 °F 24% 30.31 in 10.0 mi Variable 4.6 mph - N/A   Clear
1:54 PM 63.0 °F - 23.0 °F 22% 30.30 in 10.0 mi Variable 5.8 mph - N/A   Clear
2:54 PM 63.0 °F - 23.0 °F 22% 30.29 in 10.0 mi Variable 4.6 mph - N/A   Clear
3:54 PM 63.0 °F - 23.0 °F 22% 30.29 in 10.0 mi Variable 4.6 mph - N/A   Clear
4:54 PM 61.0 °F - 24.1 °F 24% 30.29 in 10.0 mi Calm Calm - N/A   Clear
5:54 PM 53.1 °F - 30.0 °F 41% 30.30 in 10.0 mi Calm Calm - N/A   Clear
6:54 PM 52.0 °F - 30.9 °F 45% 30.31 in 10.0 mi Calm Calm - N/A   Clear
7:54 PM 52.0 °F - 32.0 °F 47% 30.33 in 10.0 mi South 3.5 mph - N/A   Clear
8:54 PM 48.0 °F - 34.0 °F 58% 30.38 in 10.0 mi Calm Calm - N/A   Clear
9:54 PM 46.9 °F - 33.1 °F 59% 30.38 in 10.0 mi Calm Calm - N/A   Clear
10:54 PM 46.9 °F - 36.0 °F 66% 30.38 in 10.0 mi Calm Calm - N/A   Clear
11:54 PM 46.9 °F - 35.1 °F 63% 31.11 in 10.0 mi Calm Calm - N/A   Clear